| time (UTC) | temp F | wind direction | speed MPH | gust MPH | rain 1hr in | rain 24hr in | rain mn in | humidity % | barometer mb |
| 20260831233023 | 66 | 271 | 0.0 | 0.0 | 0.00 | 0.41 | 0.30 | 87 | 1019.3 |
| 20260831232512 | 66 | 271 | 0.0 | 0.0 | 0.00 | 0.41 | 0.30 | 85 | 1019.4 |
| 20260831232014 | 66 | 271 | 0.0 | 0.0 | 0.00 | 0.41 | 0.30 | 85 | 1019.4 |
| 20260831231528 | 66 | 271 | 0.0 | 0.0 | 0.00 | 0.41 | 0.30 | 85 | 1019.4 |
| 20260831231019 | 66 | 271 | 0.0 | 0.0 | 0.00 | 0.41 | 0.30 | 86 | 1019.5 |
| 20260831230519 | 67 | 271 | 0.0 | 0.0 | 0.00 | 0.41 | 0.30 | 85 | 1019.6 |
| 20260831230032 | 67 | 271 | 0.0 | 0.0 | 0.00 | 0.41 | 0.30 | 84 | 1019.5 |
| 20260831225517 | 67 | 271 | 0.0 | 0.0 | 0.00 | 0.41 | 0.30 | 84 | 1019.5 |
| 20260831225008 | 67 | 271 | 0.0 | 0.0 | 0.00 | 0.41 | 0.30 | 84 | 1019.6 |
| 20260831224512 | 67 | 271 | 0.0 | 0.0 | 0.00 | 0.41 | 0.30 | 84 | 1019.6 |
| 20260831224010 | 67 | 271 | 0.0 | 0.0 | 0.00 | 0.41 | 0.30 | 83 | 1019.6 |
| 20260831223512 | 67 | 271 | 0.0 | 0.0 | 0.00 | 0.41 | 0.30 | 83 | 1019.5 |
| 20260831223022 | 67 | 271 | 0.0 | 0.0 | 0.00 | 0.41 | 0.30 | 83 | 1019.6 |
| 20260831222512 | 67 | 271 | 0.0 | 0.0 | 0.00 | 0.41 | 0.30 | 83 | 1019.6 |
| 20260831222015 | 68 | 271 | 0.0 | 0.0 | 0.00 | 0.41 | 0.30 | 82 | 1019.7 |
| 20260831221529 | 68 | 271 | 0.0 | 0.0 | 0.00 | 0.41 | 0.30 | 82 | 1019.6 |
| 20260831221014 | 68 | 271 | 0.0 | 0.0 | 0.00 | 0.41 | 0.30 | 81 | 1019.6 |
| 20260831220515 | 68 | 271 | 0.0 | 0.0 | 0.00 | 0.41 | 0.30 | 79 | 1019.7 |
| 20260831220031 | 68 | 271 | 0.0 | 0.0 | 0.00 | 0.41 | 0.30 | 79 | 1019.8 |
| 20260831215517 | 68 | 271 | 0.0 | 0.0 | 0.00 | 0.41 | 0.30 | 80 | 1019.7 |
| 20260831215018 | 69 | 271 | 0.0 | 0.0 | 0.00 | 0.41 | 0.30 | 81 | 1019.7 |
| 20260831214540 | 69 | 271 | 0.0 | 0.0 | 0.00 | 0.41 | 0.30 | 78 | 1019.8 |
| 20260831214006 | 69 | 241 | 0.0 | 0.0 | 0.00 | 0.41 | 0.30 | 78 | 1019.8 |
| 20260831213508 | 69 | 274 | 0.0 | 0.0 | 0.00 | 0.41 | 0.30 | 78 | 1019.7 |
| 20260831213031 | 69 | 276 | 0.0 | 0.0 | 0.00 | 0.41 | 0.30 | 78 | 1019.6 |
| 20260831212513 | 69 | 271 | 0.0 | 0.0 | 0.00 | 0.41 | 0.30 | 79 | 1019.6 |
| 20260831212014 | 69 | 262 | 0.0 | 0.0 | 0.00 | 0.41 | 0.30 | 78 | 1019.7 |
| 20260831211523 | 69 | 270 | 0.0 | 0.0 | 0.00 | 0.41 | 0.30 | 78 | 1019.6 |
| 20260831211013 | 70 | 243 | 0.0 | 0.0 | 0.00 | 0.41 | 0.30 | 77 | 1019.5 |
| 20260831210515 | 70 | 304 | 0.0 | 0.0 | 0.00 | 0.41 | 0.30 | 79 | 1019.5 |
| 20260831210026 | 70 | 273 | 0.0 | 0.0 | 0.00 | 0.41 | 0.30 | 79 | 1019.5 |
| 20260831205517 | 70 | 284 | 0.0 | 0.0 | 0.00 | 0.41 | 0.30 | 78 | 1019.5 |
| 20260831205019 | 70 | 257 | 0.0 | 0.0 | 0.00 | 0.41 | 0.30 | 78 | 1019.5 |
| 20260831204531 | 71 | 256 | 0.0 | 0.0 | 0.00 | 0.41 | 0.30 | 77 | 1019.7 |
| 20260831204018 | 71 | 269 | 0.0 | 0.0 | 0.00 | 0.41 | 0.30 | 78 | 1019.6 |
| 20260831203517 | 71 | 356 | 0.0 | 0.0 | 0.00 | 0.41 | 0.30 | 79 | 1019.6 |
| 20260831203052 | 71 | 336 | 0.0 | 0.0 | 0.00 | 0.41 | 0.30 | 77 | 1019.6 |
| 20260831202508 | 71 | 5 | 0.0 | 0.0 | 0.00 | 0.41 | 0.30 | 78 | 1019.6 |
| 20260831202004 | 71 | 8 | 0.0 | 0.0 | 0.00 | 0.41 | 0.30 | 75 | 1019.6 |
| 20260831201506 | 71 | 330 | 0.0 | 0.0 | 0.00 | 0.41 | 0.30 | 74 | 1019.5 |
| 20260831201006 | 71 | 330 | 0.0 | 0.0 | 0.00 | 0.41 | 0.30 | 73 | 1019.6 |
| 20260831200503 | 71 | 271 | 0.0 | 0.0 | 0.00 | 0.41 | 0.30 | 73 | 1019.7 |
| 20260831200003 | 71 | 329 | 0.0 | 0.0 | 0.00 | 0.41 | 0.30 | 72 | 1019.7 |
| 20260831195503 | 71 | 329 | 0.0 | 0.0 | 0.00 | 0.41 | 0.30 | 72 | 1019.7 |
| 20260831195004 | 70 | 344 | 0.0 | 0.0 | 0.00 | 0.41 | 0.30 | 71 | 1019.7 |
| 20260831194505 | 71 | 285 | 0.0 | 0.0 | 0.00 | 0.41 | 0.30 | 75 | 1019.7 |
| 20260831194004 | 71 | 285 | 0.0 | 0.0 | 0.00 | 0.41 | 0.30 | 76 | 1019.8 |
| 20260831193503 | 71 | 285 | 0.0 | 0.0 | 0.00 | 0.41 | 0.30 | 75 | 1019.7 |
| 20260831193005 | 71 | 285 | 0.0 | 0.0 | 0.00 | 0.41 | 0.30 | 72 | 1019.8 |
| 20260831192504 | 71 | 285 | 0.0 | 0.0 | 0.00 | 0.41 | 0.30 | 72 | 1019.9 |
| 20260831192005 | 71 | 285 | 0.0 | 0.0 | 0.00 | 0.41 | 0.30 | 68 | 1020.1 |
| 20260831191505 | 71 | 278 | 0.0 | 0.0 | 0.00 | 0.41 | 0.30 | 70 | 1020.1 |
| 20260831191005 | 72 | 278 | 0.0 | 0.0 | 0.00 | 0.41 | 0.30 | 69 | 1020.0 |
| 20260831190505 | 72 | 276 | 0.0 | 0.0 | 0.00 | 0.41 | 0.30 | 71 | 1020.0 |
| 20260831190009 | 72 | 278 | 0.0 | 0.0 | 0.00 | 0.41 | 0.30 | 74 | 1020.1 |
| 20260831185504 | 71 | 278 | 0.0 | 0.0 | 0.00 | 0.41 | 0.30 | 68 | 1020.2 |
| 20260831185003 | 71 | 286 | 0.0 | 0.0 | 0.00 | 0.41 | 0.30 | 73 | 1020.2 |
| 20260831184503 | 71 | 286 | 0.0 | 0.0 | 0.00 | 0.41 | 0.30 | 74 | 1020.2 |
| 20260831184004 | 72 | 288 | 0.0 | 0.0 | 0.00 | 0.41 | 0.30 | 72 | 1020.0 |
| 20260831183504 | 72 | 333 | 0.0 | 0.0 | 0.00 | 0.41 | 0.30 | 74 | 1020.0 |
| 20260831183007 | 72 | 333 | 0.0 | 0.0 | 0.00 | 0.41 | 0.30 | 72 | 1020.2 |
| 20260831182504 | 73 | 333 | 0.0 | 0.0 | 0.00 | 0.41 | 0.30 | 71 | 1020.2 |
| 20260831182004 | 73 | 333 | 0.0 | 0.0 | 0.00 | 0.41 | 0.30 | 67 | 1020.1 |
| 20260831181508 | 73 | 333 | 0.0 | 0.0 | 0.00 | 0.41 | 0.30 | 65 | 1020.1 |
| 20260831181006 | 72 | 333 | 0.0 | 0.0 | 0.00 | 0.41 | 0.30 | 68 | 1020.2 |
| 20260831180505 | 72 | 333 | 0.0 | 0.0 | 0.00 | 0.41 | 0.30 | 65 | 1020.1 |
| 20260831180010 | 72 | 333 | 0.0 | 0.0 | 0.00 | 0.41 | 0.30 | 66 | 1020.1 |
| 20260831175506 | 72 | 333 | 0.0 | 0.0 | 0.00 | 0.41 | 0.30 | 64 | 1020.2 |
| 20260831175006 | 73 | 333 | 0.0 | 0.0 | 0.00 | 0.41 | 0.30 | 67 | 1020.1 |
| 20260831174510 | 73 | 333 | 0.0 | 0.0 | 0.00 | 0.41 | 0.30 | 66 | 1020.0 |
| 20260831174006 | 73 | 333 | 0.0 | 0.0 | 0.00 | 0.41 | 0.30 | 65 | 1020.0 |
| 20260831173504 | 73 | 38 | 0.0 | 0.0 | 0.00 | 0.41 | 0.30 | 63 | 1020.0 |
| 20260831173004 | 73 | 308 | 0.0 | 0.0 | 0.00 | 0.41 | 0.30 | 64 | 1020.0 |
| 20260831172504 | 73 | 308 | 0.0 | 0.0 | 0.00 | 0.41 | 0.30 | 66 | 1020.2 |
| 20260831172006 | 73 | 308 | 0.0 | 0.0 | 0.00 | 0.41 | 0.30 | 64 | 1020.2 |
| 20260831171509 | 72 | 308 | 0.0 | 0.0 | 0.00 | 0.41 | 0.30 | 64 | 1020.2 |
| 20260831171005 | 72 | 302 | 0.0 | 0.0 | 0.00 | 0.41 | 0.30 | 63 | 1020.3 |
| 20260831170505 | 72 | 302 | 0.0 | 0.0 | 0.00 | 0.41 | 0.30 | 63 | 1020.4 |
| 20260831170012 | 73 | 302 | 0.0 | 0.0 | 0.00 | 0.41 | 0.30 | 63 | 1020.4 |
| 20260831165509 | 73 | 348 | 0.0 | 0.0 | 0.00 | 0.41 | 0.30 | 63 | 1020.4 |
| 20260831165006 | 73 | 350 | 0.0 | 0.0 | 0.00 | 0.41 | 0.30 | 65 | 1020.4 |
| 20260831164512 | 73 | 293 | 0.0 | 0.0 | 0.00 | 0.41 | 0.30 | 67 | 1020.4 |
| 20260831164008 | 73 | 300 | 0.0 | 0.0 | 0.00 | 0.41 | 0.30 | 61 | 1020.4 |
| 20260831163508 | 74 | 298 | 0.0 | 0.0 | 0.00 | 0.41 | 0.30 | 62 | 1020.4 |
| 20260831163012 | 73 | 298 | 0.0 | 0.0 | 0.00 | 0.41 | 0.30 | 65 | 1020.3 |
| 20260831162510 | 73 | 294 | 0.0 | 0.0 | 0.00 | 0.41 | 0.30 | 67 | 1020.4 |
| 20260831162004 | 73 | 283 | 0.0 | 0.0 | 0.00 | 0.41 | 0.30 | 68 | 1020.4 |
| 20260831161511 | 73 | 224 | 0.0 | 0.0 | 0.00 | 0.41 | 0.30 | 69 | 1020.4 |
| 20260831161006 | 73 | 269 | 0.0 | 0.0 | 0.00 | 0.41 | 0.30 | 73 | 1020.5 |
| 20260831160509 | 73 | 33 | 0.0 | 0.0 | 0.00 | 0.41 | 0.30 | 67 | 1020.4 |
| 20260831160027 | 73 | 286 | 0.0 | 0.0 | 0.00 | 0.41 | 0.30 | 67 | 1020.4 |
| 20260831155508 | 73 | 285 | 0.0 | 0.0 | 0.00 | 0.41 | 0.30 | 68 | 1020.5 |
| 20260831155006 | 73 | 47 | 0.0 | 0.0 | 0.00 | 0.41 | 0.30 | 68 | 1020.5 |
| 20260831154538 | 72 | 284 | 0.0 | 0.0 | 0.00 | 0.41 | 0.30 | 71 | 1020.6 |
| 20260831154008 | 73 | 270 | 0.0 | 0.0 | 0.00 | 0.41 | 0.30 | 71 | 1020.8 |
| 20260831153511 | 72 | 285 | 0.0 | 0.0 | 0.00 | 0.41 | 0.30 | 71 | 1020.9 |
| 20260831153032 | 72 | 13 | 0.0 | 0.0 | 0.00 | 0.41 | 0.30 | 71 | 1021.0 |
| 20260831152509 | 72 | 328 | 0.0 | 0.0 | 0.00 | 0.41 | 0.30 | 75 | 1020.9 |
| 20260831152013 | 72 | 285 | 0.0 | 0.0 | 0.00 | 0.41 | 0.30 | 73 | 1021.0 |
| 20260831151514 | 72 | 314 | 0.0 | 0.0 | 0.00 | 0.41 | 0.30 | 76 | 1020.9 |
| 20260831151006 | 72 | 75 | 0.0 | 0.0 | 0.00 | 0.41 | 0.30 | 72 | 1020.9 |
| 20260831150506 | 71 | 171 | 0.0 | 0.0 | 0.00 | 0.41 | 0.30 | 80 | 1020.9 |
| 20260831150012 | 71 | 307 | 0.0 | 0.0 | 0.00 | 0.41 | 0.30 | 80 | 1020.9 |
| 20260831145506 | 71 | 307 | 0.0 | 0.0 | 0.00 | 0.41 | 0.30 | 82 | 1020.8 |
| 20260831145010 | 71 | 307 | 0.0 | 0.0 | 0.00 | 0.41 | 0.30 | 82 | 1020.8 |
| 20260831144515 | 70 | 341 | 0.0 | 0.0 | 0.00 | 0.41 | 0.30 | 76 | 1020.9 |
| 20260831144010 | 70 | 34 | 0.0 | 0.0 | 0.00 | 0.41 | 0.30 | 79 | 1020.9 |
| 20260831143510 | 70 | 1 | 0.0 | 0.0 | 0.00 | 0.41 | 0.30 | 80 | 1020.8 |
| 20260831143014 | 69 | 298 | 0.0 | 0.0 | 0.00 | 0.41 | 0.30 | 82 | 1020.8 |
| 20260831142512 | 69 | 347 | 0.0 | 0.0 | 0.00 | 0.41 | 0.30 | 82 | 1020.7 |
| 20260831142010 | 68 | 328 | 0.0 | 0.0 | 0.00 | 0.41 | 0.30 | 84 | 1020.6 |
| 20260831141519 | 68 | 341 | 0.0 | 0.0 | 0.00 | 0.41 | 0.30 | 85 | 1020.6 |
| 20260831141009 | 67 | 266 | 0.0 | 0.0 | 0.00 | 0.41 | 0.30 | 88 | 1020.5 |
| 20260831140511 | 67 | 339 | 0.0 | 0.0 | 0.00 | 0.41 | 0.30 | 87 | 1020.5 |
| 20260831140018 | 66 | 224 | 0.0 | 0.0 | 0.00 | 0.41 | 0.30 | 88 | 1020.5 |
| 20260831135508 | 66 | 221 | 0.0 | 0.0 | 0.00 | 0.41 | 0.30 | 88 | 1020.4 |
| 20260831135008 | 66 | 3 | 0.0 | 0.0 | 0.00 | 0.41 | 0.30 | 90 | 1020.4 |
| 20260831134514 | 65 | 2 | 0.0 | 0.0 | 0.00 | 0.41 | 0.30 | 1020.3 | |
| 20260831134008 | 65 | 334 | 0.0 | 0.0 | 0.00 | 0.41 | 0.30 | 1020.3 | |
| 20260831133509 | 65 | 332 | 0.0 | 0.0 | 0.00 | 0.41 | 0.30 | 1020.2 | |
| 20260831133018 | 65 | 359 | 0.0 | 0.0 | 0.00 | 0.41 | 0.30 | 1020.1 | |
| 20260831132514 | 65 | 29 | 0.0 | 0.0 | 0.00 | 0.41 | 0.30 | 94 | 1020.0 |
| 20260831132012 | 65 | 240 | 0.0 | 0.0 | 0.00 | 0.41 | 0.30 | 94 | 1020.1 |
| 20260831131522 | 64 | 238 | 0.0 | 0.0 | 0.00 | 0.41 | 0.30 | 94 | 1020.1 |
| 20260831131011 | 64 | 240 | 0.0 | 0.0 | 0.00 | 0.41 | 0.30 | 95 | 1020.1 |
| 20260831130511 | 64 | 241 | 0.0 | 0.0 | 0.00 | 0.41 | 0.30 | 94 | 1020.1 |
| 20260831130017 | 64 | 240 | 0.0 | 0.0 | 0.00 | 0.41 | 0.30 | 95 | 1020.2 |
| 20260831125516 | 64 | 238 | 0.0 | 0.0 | 0.00 | 0.41 | 0.30 | 95 | 1020.2 |
| 20260831125011 | 64 | 203 | 0.0 | 0.0 | 0.00 | 0.41 | 0.30 | 95 | 1020.2 |
| 20260831124520 | 64 | 203 | 0.0 | 0.0 | 0.00 | 0.41 | 0.30 | 95 | 1020.2 |
| 20260831124010 | 64 | 203 | 0.0 | 0.0 | 0.00 | 0.41 | 0.30 | 95 | 1020.2 |
| 20260831123510 | 64 | 203 | 0.0 | 0.0 | 0.00 | 0.41 | 0.30 | 95 | 1020.1 |
| 20260831123026 | 64 | 203 | 0.0 | 0.0 | 0.00 | 0.41 | 0.30 | 95 | 1020.0 |
| 20260831122516 | 64 | 203 | 0.0 | 0.0 | 0.00 | 0.41 | 0.30 | 95 | 1020.1 |
| 20260831122013 | 64 | 203 | 0.0 | 0.0 | 0.00 | 0.41 | 0.30 | 95 | 1020.0 |
| 20260831121529 | 64 | 203 | 0.0 | 0.0 | 0.00 | 0.41 | 0.30 | 95 | 1020.0 |
| 20260831121018 | 64 | 203 | 0.0 | 0.0 | 0.00 | 0.41 | 0.30 | 95 | 1020.0 |
| 20260831120512 | 64 | 203 | 0.0 | 0.0 | 0.00 | 0.41 | 0.30 | 95 | 1020.1 |
| 20260831120033 | 64 | 203 | 0.0 | 0.0 | 0.00 | 0.41 | 0.30 | 95 | 1020.2 |
| 20260831115516 | 64 | 203 | 0.0 | 0.0 | 0.00 | 0.41 | 0.30 | 95 | 1020.0 |
| 20260831115016 | 64 | 203 | 0.0 | 0.0 | 0.00 | 0.41 | 0.30 | 95 | 1019.9 |
| 20260831114529 | 64 | 203 | 0.0 | 0.0 | 0.00 | 0.41 | 0.30 | 95 | 1019.8 |
| 20260831114015 | 64 | 203 | 0.0 | 0.0 | 0.00 | 0.41 | 0.30 | 95 | 1019.8 |
| 20260831113516 | 64 | 203 | 0.0 | 0.0 | 0.00 | 0.41 | 0.30 | 95 | 1019.8 |
| 20260831113025 | 64 | 203 | 0.0 | 0.0 | 0.00 | 0.41 | 0.30 | 95 | 1019.8 |
| 20260831112511 | 64 | 203 | 0.0 | 0.0 | 0.00 | 0.41 | 0.30 | 95 | 1019.8 |
| 20260831112012 | 64 | 203 | 0.0 | 0.0 | 0.00 | 0.41 | 0.30 | 95 | 1019.8 |
| 20260831111521 | 64 | 203 | 0.0 | 0.0 | 0.00 | 0.41 | 0.30 | 95 | 1019.6 |
| 20260831111003 | 64 | 203 | 0.0 | 0.0 | 0.00 | 0.41 | 0.30 | 95 | 1019.5 |
| 20260831110503 | 64 | 203 | 0.0 | 0.0 | 0.00 | 0.41 | 0.30 | 95 | 1019.5 |
| 20260831110004 | 64 | 203 | 0.0 | 0.0 | 0.00 | 0.41 | 0.30 | 95 | 1019.4 |
| 20260831105504 | 64 | 203 | 0.0 | 0.0 | 0.00 | 0.41 | 0.30 | 95 | 1019.4 |
| 20260831105007 | 64 | 203 | 0.0 | 0.0 | 0.00 | 0.41 | 0.30 | 95 | 1019.4 |
| 20260831104516 | 64 | 203 | 0.0 | 0.0 | 0.00 | 0.41 | 0.30 | 95 | 1019.3 |
| 20260831104007 | 64 | 203 | 0.0 | 0.0 | 0.00 | 0.41 | 0.30 | 95 | 1019.3 |
| 20260831103507 | 64 | 203 | 0.0 | 0.0 | 0.00 | 0.41 | 0.30 | 95 | 1019.3 |
| 20260831103010 | 64 | 203 | 0.0 | 0.0 | 0.00 | 0.41 | 0.30 | 95 | 1019.2 |
| 20260831102507 | 64 | 203 | 0.0 | 0.0 | 0.00 | 0.41 | 0.30 | 95 | 1019.2 |
| 20260831102011 | 64 | 203 | 0.0 | 0.0 | 0.00 | 0.41 | 0.30 | 95 | 1019.1 |
| 20260831101522 | 64 | 203 | 0.0 | 0.0 | 0.00 | 0.41 | 0.30 | 95 | 1019.0 |
| 20260831101014 | 65 | 203 | 0.0 | 0.0 | 0.00 | 0.41 | 0.30 | 95 | 1018.9 |
| 20260831100512 | 65 | 203 | 0.0 | 0.0 | 0.00 | 0.41 | 0.30 | 95 | 1018.8 |
| 20260831100027 | 65 | 203 | 0.0 | 0.0 | 0.00 | 0.41 | 0.30 | 95 | 1018.8 |
| 20260831095503 | 65 | 203 | 0.0 | 0.0 | 0.00 | 0.41 | 0.30 | 95 | 1018.7 |
| 20260831095004 | 65 | 203 | 0.0 | 0.0 | 0.00 | 0.41 | 0.30 | 95 | 1018.6 |
| 20260831094504 | 65 | 203 | 0.0 | 0.0 | 0.00 | 0.41 | 0.30 | 95 | 1018.4 |
| 20260831094003 | 65 | 203 | 0.0 | 0.0 | 0.00 | 0.41 | 0.30 | 95 | 1018.4 |
| 20260831093507 | 65 | 203 | 0.0 | 0.0 | 0.00 | 0.41 | 0.30 | 95 | 1018.4 |
| 20260831093005 | 65 | 203 | 0.0 | 0.0 | 0.00 | 0.41 | 0.30 | 95 | 1018.4 |
| 20260831092508 | 65 | 203 | 0.0 | 0.0 | 0.00 | 0.41 | 0.30 | 95 | 1018.4 |
| 20260831092014 | 65 | 203 | 0.0 | 0.0 | 0.00 | 0.41 | 0.30 | 95 | 1018.3 |
| 20260831091510 | 65 | 203 | 0.0 | 0.0 | 0.00 | 0.41 | 0.30 | 95 | 1018.3 |
| 20260831091010 | 65 | 203 | 0.0 | 0.0 | 0.00 | 0.41 | 0.30 | 95 | 1018.3 |
| 20260831090517 | 66 | 203 | 0.0 | 0.0 | 0.00 | 0.41 | 0.30 | 95 | 1018.2 |
| 20260831090018 | 66 | 203 | 0.0 | 0.0 | 0.00 | 0.41 | 0.30 | 95 | 1018.2 |
| 20260831085513 | 66 | 203 | 0.0 | 0.0 | 0.00 | 0.41 | 0.30 | 95 | 1018.2 |
| 20260831085016 | 66 | 203 | 0.0 | 0.0 | 0.00 | 0.41 | 0.30 | 95 | 1018.2 |
| 20260831084528 | 66 | 203 | 0.0 | 0.0 | 0.00 | 0.41 | 0.30 | 95 | 1018.1 |
| 20260831084003 | 66 | 203 | 0.0 | 0.0 | 0.00 | 0.41 | 0.30 | 95 | 1018.1 |
| 20260831083505 | 66 | 203 | 0.0 | 0.0 | 0.00 | 0.41 | 0.30 | 95 | 1018.1 |
| 20260831083007 | 66 | 203 | 0.0 | 0.0 | 0.00 | 0.41 | 0.30 | 95 | 1018.1 |
| 20260831082505 | 66 | 203 | 0.0 | 0.0 | 0.00 | 0.41 | 0.30 | 95 | 1017.9 |
| 20260831082006 | 66 | 203 | 0.0 | 0.0 | 0.00 | 0.41 | 0.30 | 95 | 1017.9 |
| 20260831081513 | 66 | 203 | 0.0 | 0.0 | 0.00 | 0.41 | 0.30 | 95 | 1017.9 |
| 20260831081006 | 66 | 203 | 0.0 | 0.0 | 0.00 | 0.41 | 0.30 | 95 | 1017.9 |
| 20260831080509 | 67 | 203 | 0.0 | 0.0 | 0.00 | 0.41 | 0.30 | 95 | 1017.9 |
| 20260831080017 | 67 | 203 | 0.0 | 0.0 | 0.00 | 0.41 | 0.30 | 95 | 1017.9 |
| 20260831075512 | 67 | 203 | 0.0 | 0.0 | 0.00 | 0.41 | 0.30 | 95 | 1017.9 |
| 20260831075014 | 67 | 203 | 0.0 | 0.0 | 0.00 | 0.41 | 0.30 | 95 | 1017.9 |
| 20260831074524 | 67 | 203 | 0.0 | 0.0 | 0.00 | 0.41 | 0.30 | 95 | 1017.8 |
| 20260831074018 | 67 | 203 | 0.0 | 0.0 | 0.00 | 0.41 | 0.30 | 95 | 1017.9 |
| 20260831073516 | 67 | 203 | 0.0 | 0.0 | 0.00 | 0.41 | 0.30 | 95 | 1017.8 |
| 20260831073029 | 67 | 203 | 0.0 | 0.0 | 0.00 | 0.41 | 0.30 | 95 | 1017.6 |
| 20260831072503 | 67 | 203 | 0.0 | 0.0 | 0.00 | 0.41 | 0.30 | 95 | 1017.6 |
| 20260831072001 | 67 | 203 | 0.0 | 0.0 | 0.00 | 0.41 | 0.30 | 95 | 1017.6 |
| 20260831071507 | 67 | 203 | 0.0 | 0.0 | 0.00 | 0.41 | 0.30 | 95 | 1017.5 |
| 20260831071008 | 67 | 203 | 0.0 | 0.0 | 0.00 | 0.41 | 0.30 | 95 | 1017.5 |
| 20260831070508 | 67 | 203 | 0.0 | 0.0 | 0.00 | 0.41 | 0.30 | 95 | 1017.5 |
| 20260831070020 | 67 | 203 | 0.0 | 0.0 | 0.00 | 0.41 | 0.30 | 95 | 1017.4 |
| 20260831065509 | 67 | 203 | 0.0 | 0.0 | 0.00 | 0.41 | 0.30 | 95 | 1017.4 |
| 20260831065011 | 67 | 203 | 0.0 | 0.0 | 0.00 | 0.41 | 0.30 | 95 | 1017.4 |
| 20260831064520 | 67 | 203 | 0.0 | 0.0 | 0.00 | 0.41 | 0.30 | 95 | 1017.3 |
| 20260831064017 | 67 | 203 | 0.0 | 0.0 | 0.00 | 0.41 | 0.30 | 95 | 1017.3 |
| 20260831063516 | 67 | 203 | 0.0 | 0.0 | 0.00 | 0.41 | 0.30 | 95 | 1017.2 |
| 20260831063028 | 67 | 203 | 0.0 | 0.0 | 0.00 | 0.41 | 0.30 | 95 | 1017.2 |
| 20260831062517 | 67 | 203 | 0.0 | 0.0 | 0.00 | 0.41 | 0.30 | 95 | 1017.0 |
| 20260831062016 | 67 | 203 | 0.0 | 0.0 | 0.00 | 0.41 | 0.30 | 95 | 1017.0 |
| 20260831061529 | 67 | 203 | 0.0 | 0.0 | 0.00 | 0.41 | 0.30 | 95 | 1017.0 |
| 20260831061010 | 67 | 203 | 0.0 | 0.0 | 0.01 | 0.41 | 0.30 | 95 | 1017.1 |
| 20260831060506 | 67 | 203 | 0.0 | 0.0 | 0.02 | 0.41 | 0.30 | 95 | 1017.1 |
| 20260831060009 | 67 | 203 | 0.0 | 0.0 | 0.05 | 0.41 | 0.30 | 95 | 1017.1 |
| 20260831055510 | 67 | 203 | 0.0 | 0.0 | 0.11 | 0.41 | 0.30 | 95 | 1017.3 |
| 20260831055013 | 67 | 203 | 0.0 | 0.0 | 0.14 | 0.41 | 0.30 | 95 | 1017.4 |
| 20260831054517 | 68 | 203 | 0.0 | 0.0 | 0.19 | 0.41 | 0.30 | 95 | 1017.5 |
| 20260831054011 | 67 | 203 | 0.0 | 0.0 | 0.21 | 0.41 | 0.30 | 95 | 1017.4 |
| 20260831053510 | 67 | 203 | 0.0 | 0.0 | 0.22 | 0.41 | 0.30 | 95 | 1017.3 |
| 20260831053025 | 67 | 203 | 0.0 | 0.0 | 0.24 | 0.41 | 0.30 | 95 | 1017.1 |
| 20260831052514 | 68 | 203 | 0.0 | 0.0 | 0.24 | 0.41 | 0.30 | 95 | 1017.2 |
| 20260831052016 | 68 | 203 | 0.0 | 0.0 | 0.26 | 0.41 | 0.30 | 95 | 1017.1 |
| 20260831051545 | 68 | 203 | 0.0 | 0.0 | 0.27 | 0.41 | 0.30 | 94 | 1017.2 |
| 20260831051019 | 68 | 203 | 0.0 | 0.0 | 0.27 | 0.40 | 0.29 | 94 | 1017.1 |
| 20260831050515 | 68 | 203 | 0.0 | 0.0 | 0.27 | 0.39 | 0.28 | 94 | 1017.3 |
| 20260831050036 | 68 | 203 | 0.0 | 0.0 | 0.25 | 0.36 | 0.25 | 94 | 1017.4 |
| 20260831045506 | 68 | 203 | 0.0 | 0.0 | 0.20 | 0.30 | 0.19 | 94 | 1017.6 |
| 20260831045009 | 68 | 203 | 0.0 | 0.0 | 0.18 | 0.27 | 0.16 | 94 | 1017.4 |
| 20260831044512 | 68 | 203 | 0.0 | 0.0 | 0.14 | 0.22 | 0.11 | 94 | 1017.5 |
| 20260831044009 | 69 | 203 | 0.0 | 0.0 | 0.12 | 0.20 | 0.09 | 94 | 1017.5 |
| 20260831043511 | 69 | 203 | 0.0 | 0.0 | 0.12 | 0.19 | 0.08 | 94 | 1017.4 |
| 20260831043018 | 69 | 203 | 0.0 | 0.0 | 0.11 | 0.17 | 0.06 | 95 | 1017.4 |
| 20260831042513 | 69 | 203 | 0.0 | 0.0 | 0.12 | 0.17 | 0.06 | 95 | 1017.3 |
| 20260831042015 | 69 | 203 | 0.0 | 0.0 | 0.11 | 0.15 | 0.04 | 94 | 1017.4 |
| 20260831041532 | 69 | 203 | 0.0 | 0.0 | 0.10 | 0.14 | 0.03 | 94 | 1017.4 |
| 20260831041014 | 69 | 203 | 0.0 | 0.0 | 0.10 | 0.13 | 0.02 | 94 | 1017.5 |
| 20260831040514 | 69 | 203 | 0.0 | 0.0 | 0.10 | 0.12 | 0.01 | 94 | 1017.6 |
| 20260831040042 | 69 | 203 | 0.0 | 0.0 | 0.10 | 0.11 | 0.00 | 94 | 1017.6 |
| 20260831035518 | 69 | 203 | 0.0 | 0.0 | 0.10 | 0.10 | 0.10 | 94 | 1017.5 |
| 20260831035017 | 69 | 203 | 0.0 | 0.0 | 0.09 | 0.09 | 0.09 | 94 | 1017.6 |
| 20260831034535 | 69 | 203 | 0.0 | 0.0 | 0.08 | 0.08 | 0.08 | 94 | 1017.5 |
| 20260831034010 | 68 | 203 | 0.0 | 0.0 | 0.08 | 0.08 | 0.08 | 94 | 1017.6 |
| 20260831033510 | 68 | 203 | 0.0 | 0.0 | 0.07 | 0.07 | 0.07 | 93 | 1017.6 |
| 20260831033018 | 68 | 203 | 0.0 | 0.0 | 0.06 | 0.06 | 0.06 | 92 | 1017.8 |
| 20260831032513 | 68 | 203 | 0.0 | 0.0 | 0.05 | 0.05 | 0.05 | 92 | 1017.9 |
| 20260831032012 | 69 | 203 | 0.0 | 0.0 | 0.04 | 0.04 | 0.04 | 91 | 1018.0 |
| 20260831031525 | 69 | 208 | 0.0 | 0.0 | 0.04 | 0.04 | 0.04 | 92 | 1018.0 |
| 20260831031017 | 70 | 208 | 0.0 | 0.0 | 0.03 | 0.03 | 0.03 | 93 | 1018.2 |
| 20260831030513 | 70 | 208 | 0.0 | 0.0 | 0.02 | 0.02 | 0.02 | 92 | 1018.1 |
| 20260831030030 | 70 | 208 | 0.0 | 0.0 | 0.01 | 0.01 | 0.01 | 92 | 1018.0 |
| 20260831025516 | 70 | 208 | 0.0 | 0.0 | 0.00 | 0.00 | 0.00 | 91 | 1018.0 |
| 20260831025019 | 70 | 214 | 0.0 | 0.0 | 0.00 | 0.00 | 0.00 | 91 | 1017.9 |
| 20260831024529 | 70 | 213 | 0.0 | 0.0 | 0.00 | 0.00 | 0.00 | 91 | 1017.8 |
| 20260831024018 | 70 | 210 | 0.0 | 0.0 | 0.00 | 0.00 | 0.00 | 90 | 1017.8 |
| 20260831023516 | 71 | 210 | 0.0 | 0.0 | 0.00 | 0.00 | 0.00 | 90 | 1017.9 |
| 20260831023039 | 71 | 210 | 0.0 | 0.0 | 0.00 | 0.00 | 0.00 | 89 | 1017.9 |
| 20260831022513 | 71 | 210 | 0.0 | 0.0 | 0.00 | 0.00 | 0.00 | 89 | 1018.0 |
| 20260831022010 | 71 | 210 | 0.0 | 0.0 | 0.00 | 0.00 | 0.00 | 88 | 1018.0 |
| 20260831021539 | 71 | 211 | 0.0 | 0.0 | 0.00 | 0.00 | 0.00 | 88 | 1018.0 |
| 20260831021011 | 71 | 211 | 0.0 | 0.0 | 0.00 | 0.00 | 0.00 | 87 | 1018.0 |
| 20260831020514 | 71 | 217 | 0.0 | 0.0 | 0.00 | 0.00 | 0.00 | 87 | 1017.9 |
| 20260831020029 | 71 | 214 | 0.0 | 0.0 | 0.00 | 0.00 | 0.00 | 87 | 1017.9 |
| 20260831015519 | 71 | 212 | 0.0 | 0.0 | 0.00 | 0.00 | 0.00 | 87 | 1017.9 |
| 20260831015017 | 71 | 212 | 0.0 | 0.0 | 0.00 | 0.00 | 0.00 | 87 | 1017.8 |
| 20260831014531 | 71 | 212 | 0.0 | 0.0 | 0.00 | 0.00 | 0.00 | 87 | 1017.8 |
| 20260831014016 | 71 | 214 | 0.0 | 0.0 | 0.00 | 0.00 | 0.00 | 87 | 1017.9 |
| 20260831013518 | 71 | 214 | 0.0 | 0.0 | 0.00 | 0.00 | 0.00 | 87 | 1017.9 |
| 20260831013032 | 71 | 214 | 0.0 | 0.0 | 0.00 | 0.00 | 0.00 | 87 | 1017.9 |
| 20260831012518 | 71 | 195 | 0.0 | 0.0 | 0.00 | 0.00 | 0.00 | 87 | 1017.9 |
| 20260831012016 | 71 | 189 | 0.0 | 0.0 | 0.00 | 0.00 | 0.00 | 87 | 1017.8 |
| 20260831011515 | 71 | 192 | 0.0 | 0.0 | 0.00 | 0.00 | 0.00 | 87 | 1017.8 |
| 20260831011012 | 71 | 194 | 0.0 | 0.0 | 0.00 | 0.00 | 0.00 | 86 | 1017.8 |
| 20260831010512 | 72 | 190 | 0.0 | 0.0 | 0.00 | 0.00 | 0.00 | 86 | 1017.8 |
| 20260831010041 | 72 | 196 | 0.0 | 0.0 | 0.00 | 0.00 | 0.00 | 86 | 1017.7 |
| 20260831005515 | 72 | 207 | 0.0 | 0.0 | 0.00 | 0.00 | 0.00 | 86 | 1017.8 |
| 20260831005014 | 72 | 197 | 0.0 | 0.0 | 0.00 | 0.00 | 0.00 | 85 | 1017.8 |
| 20260831004528 | 72 | 196 | 0.0 | 0.0 | 0.00 | 0.00 | 0.00 | 85 | 1017.9 |
| 20260831004015 | 72 | 205 | 0.0 | 0.0 | 0.00 | 0.00 | 0.00 | 84 | 1017.9 |
| 20260831003518 | 72 | 210 | 0.0 | 0.0 | 0.00 | 0.00 | 0.00 | 84 | 1017.8 |
| 20260831003030 | 72 | 216 | 0.0 | 0.0 | 0.00 | 0.00 | 0.00 | 83 | 1017.8 |
| 20260831002516 | 71 | 181 | 0.0 | 0.0 | 0.00 | 0.00 | 0.00 | 82 | 1017.7 |
| 20260831002012 | 71 | 199 | 0.0 | 0.0 | 0.00 | 0.00 | 0.00 | 82 | 1017.7 |
| 20260831001527 | 72 | 199 | 0.0 | 0.0 | 0.00 | 0.00 | 0.00 | 82 | 1017.6 |
| 20260831001010 | 71 | 195 | 0.0 | 0.0 | 0.00 | 0.00 | 0.00 | 82 | 1017.6 |
| 20260831000511 | 71 | 198 | 0.0 | 0.0 | 0.00 | 0.00 | 0.00 | 82 | 1017.6 |
| 20260831000020 | 71 | 200 | 0.0 | 0.0 | 0.00 | 0.00 | 0.00 | 82 | 1017.5 |
| 20260830235514 | 71 | 198 | 0.0 | 0.0 | 0.00 | 0.00 | 0.00 | 82 | 1017.4 |
| 20260830235013 | 71 | 198 | 0.0 | 0.0 | 0.00 | 0.00 | 0.00 | 82 | 1017.4 |
| 20260830234529 | 71 | 200 | 0.0 | 0.0 | 0.00 | 0.00 | 0.00 | 82 | 1017.5 |
| 20260830234002 | 71 | 211 | 0.0 | 0.0 | 0.00 | 0.00 | 0.00 | 82 | 1017.6 |
| 20260830233503 | 71 | 198 | 0.0 | 0.0 | 0.00 | 0.00 | 0.00 | 82 | 1017.5 |